Time,TemperatureF,DewpointF,PressureIn,WindDirection,WindDirectionDegrees,WindSpeedMPH,WindSpeedGustMPH,Humidity,HourlyPrecipIn,Conditions,Clouds,dailyrainin,SoftwareType,DateUTC
2015-03-04 00:12:00,46.0,44.0,29.76,North,350,4.0,-999.0,91,-99.99,,,-99.99,,2015-03-04 06:12:00,
2015-03-04 00:23:00,46.0,44.0,29.76,North,5,3.0,-999.0,91,-99.99,,,-99.99,,2015-03-04 06:23:00,
2015-03-04 00:42:00,46.0,44.0,29.76,NE,40,3.0,-999.0,91,-99.99,,,-99.99,,2015-03-04 06:42:00,
2015-03-04 00:52:00,46.0,44.0,29.75,NNE,32,2.0,-999.0,92,-99.99,,,-99.99,,2015-03-04 06:52:00,
2015-03-04 01:12:00,46.0,44.0,29.75,NE,49,3.0,-999.0,92,-99.99,,,-99.99,,2015-03-04 07:12:00,
2015-03-04 01:22:00,45.0,43.0,29.76,NNE,13,4.0,-999.0,92,-99.99,,,-99.99,,2015-03-04 07:22:00,
2015-03-04 01:42:00,45.0,43.0,29.77,NNE,24,4.0,-999.0,92,-99.99,,,-99.99,,2015-03-04 07:42:00,
2015-03-04 01:52:00,45.0,43.0,29.77,NNE,24,3.0,-999.0,92,-99.99,,,-99.99,,2015-03-04 07:52:00,
2015-03-04 02:12:00,44.0,42.0,29.76,North,5,7.0,-999.0,92,-99.99,,,-99.99,,2015-03-04 08:12:00,
2015-03-04 02:22:00,41.0,39.0,29.76,NNE,28,6.0,-999.0,92,-99.99,,,-99.99,,2015-03-04 08:22:00,
2015-03-04 02:43:00,39.0,37.0,29.78,NNE,32,8.0,-999.0,92,-99.99,,,-99.99,,2015-03-04 08:43:00,
2015-03-04 02:52:00,38.0,36.0,29.78,NNE,12,7.0,-999.0,93,-99.99,,,-99.99,,2015-03-04 08:52:00,
2015-03-04 03:12:00,37.0,35.0,29.78,ENE,60,8.0,-999.0,93,-99.99,,,-99.99,,2015-03-04 09:12:00,
2015-03-04 03:22:00,37.0,35.0,29.79,NNE,27,7.0,-999.0,93,-99.99,,,-99.99,,2015-03-04 09:22:00,
2015-03-04 03:43:00,37.0,35.0,29.78,NE,46,7.0,-999.0,93,-99.99,,,-99.99,,2015-03-04 09:43:00,
2015-03-04 03:53:00,36.0,34.0,29.79,NNW,344,6.0,-999.0,93,-99.99,,,-99.99,,2015-03-04 09:53:00,
2015-03-04 04:13:00,36.0,34.0,29.80,NNE,23,6.0,-999.0,93,-99.99,,,-99.99,,2015-03-04 10:13:00,
2015-03-04 04:23:00,36.0,34.0,29.80,NE,38,7.0,-999.0,93,-99.99,,,-99.99,,2015-03-04 10:23:00,
2015-03-04 04:43:00,36.0,34.0,29.82,North,360,8.0,-999.0,93,-99.99,,,-99.99,,2015-03-04 10:43:00,
2015-03-04 04:53:00,35.0,33.0,29.83,NNE,15,7.0,-999.0,93,-99.99,,,-99.99,,2015-03-04 10:53:00,
2015-03-04 05:12:00,35.0,33.0,29.84,ENE,65,6.0,-999.0,93,-99.99,,,-99.99,,2015-03-04 11:12:00,
2015-03-04 05:43:00,34.0,32.0,29.84,NNE,31,7.0,-999.0,93,-99.99,,,-99.99,,2015-03-04 11:43:00,
2015-03-04 05:53:00,34.0,32.0,29.85,NE,49,7.0,-999.0,93,-99.99,,,-99.99,,2015-03-04 11:53:00,
2015-03-04 06:12:00,33.0,31.0,29.88,NE,42,8.0,-999.0,93,-99.99,,,-99.99,,2015-03-04 12:12:00,
2015-03-04 06:22:00,33.0,31.0,29.88,NNE,30,8.0,-999.0,93,-99.99,,,-99.99,,2015-03-04 12:22:00,
2015-03-04 06:42:00,33.0,31.0,29.88,NE,38,7.0,-999.0,93,-99.99,,,-99.99,,2015-03-04 12:42:00,
2015-03-04 06:53:00,33.0,31.0,29.91,ENE,63,8.0,-999.0,93,-99.99,,,-99.99,,2015-03-04 12:53:00,
2015-03-04 07:12:00,33.0,31.0,29.89,ENE,57,7.0,-999.0,93,-99.99,,,-99.99,,2015-03-04 13:12:00,
2015-03-04 07:22:00,33.0,31.0,29.92,NE,39,5.0,-999.0,93,-99.99,,,-99.99,,2015-03-04 13:22:00,
2015-03-04 07:43:00,33.0,31.0,29.92,NNE,19,6.0,-999.0,93,-99.99,,,-99.99,,2015-03-04 13:43:00,
2015-03-04 07:52:00,33.0,31.0,29.93,NNE,22,6.0,-999.0,93,-99.99,,,-99.99,,2015-03-04 13:52:00,
2015-03-04 08:12:00,33.0,31.0,29.94,North,5,7.0,-999.0,93,-99.99,,,-99.99,,2015-03-04 14:12:00,
2015-03-04 08:22:00,32.0,30.0,29.96,ENE,61,9.0,-999.0,93,-99.99,,,-99.99,,2015-03-04 14:22:00,
2015-03-04 08:42:00,32.0,30.0,29.96,NE,48,8.0,-999.0,92,-99.99,,,-99.99,,2015-03-04 14:42:00,
2015-03-04 08:52:00,32.0,30.0,29.96,NE,36,7.0,-999.0,92,-99.99,,,-99.99,,2015-03-04 14:52:00,
2015-03-04 09:12:00,31.0,29.0,29.97,NNE,20,7.0,-999.0,92,-99.99,,,-99.99,,2015-03-04 15:12:00,
2015-03-04 09:22:00,31.0,29.0,29.97,NNE,17,7.0,-999.0,92,-99.99,,,-99.99,,2015-03-04 15:22:00,